Location: Okie-Tex Star Party
(36.8978°N, 102.9520°W)
Time: 08:39:07
(UTC-06:00)

Daily predictions for brighter satellites

Satellite Brightness Start Highest point End
(mag) Time Altitude Azimuth Time Altitude Azimuth Time Altitude Azimuth
CZ-3B DEB 2.7 17:51:02 10° W 17:54:11 40° NNW 18:01:23 10° NE
CRYOSAT 2 4.4 17:54:10 10° N 17:59:05 79° E 18:03:57 10° S
PAYLOAD A 3.9 17:54:53 10° SSE 17:59:42 72° ENE 18:04:44 10° N
Cosmos 2082 Rocket 2.8 17:54:44 10° N 17:59:56 36° ENE 18:05:07 10° SE
Cosmos 1500 3.7 17:57:01 10° N 18:00:39 39° E 18:04:16 10° SSE
Cosmos 1743 4.0 18:00:21 10° NNE 18:03:14 20° ENE 18:06:07 10° SE
USA 234 3.3 17:57:54 10° NE 18:04:29 82° SE 18:11:01 10° SW
CZ-2C R/B 2.6 18:00:09 10° SSE 18:05:02 53° ENE 18:10:03 10° N
Intercosmos 25 4.4 18:05:06 10° NNE 18:07:32 20° E 18:10:15 10° SE
Timation 1 Rocket 4.4 18:03:10 10° S 18:09:00 62° ESE 18:14:54 10° NNE
BREEZE M DEB (TANK) 3.5 17:56:37 10° SW 18:09:34 81° SE 18:13:12 10° NE
Nadezhda 3 Rocket 4.2 18:06:59 10° SSE 18:12:57 52° E 18:19:02 10° NNE
Cosmos 1455 Rocket 3.5 18:09:34 10° NNW 18:13:58 67° W 18:18:22 10° S
Delta 2 Rocket 3.1 18:14:29 10° W 18:17:58 73° S 18:21:52 10° E
NOSS 3-4 (A) 4.5 18:12:04 10° NNW 18:18:17 32° NE 18:24:48 10° ESE
NOSS 3-4 (C) 4.5 18:12:11 10° NNW 18:18:23 32° NE 18:24:53 10° ESE
Cosmos 1484 Rocket 3.7 18:16:41 10° SE 18:19:44 24° ENE 18:22:46 10° NNE
SKYMED 2 4.4 18:18:19 10° NE 18:22:11 31° E 18:26:01 10° SSE
Cosmos 2056 Rocket 4.2 18:19:37 10° SSE 18:24:27 35° E 18:29:15 10° NE
SJ-7 4.4 18:20:29 10° SSE 18:24:41 72° ENE 18:28:56 10° N
BREEZE M DEB (TANK) 4.2 18:23:59 10° NNW 18:27:16 27° NNE 18:34:22 11° E
SMAP 3.1 18:24:07 10° SSE 18:28:46 90° SW 18:33:26 10° NNW
ATLAS 2AS CENTAUR R/B 4.4 18:25:49 10° NW 18:33:08 41° WSW 18:39:55 10° S
Cosmos 1975 3.6 18:29:52 10° NNW 18:33:51 56° W 18:37:47 10° S
Cosmos 1809 Rocket 4.4 18:28:58 10° N 18:35:08 84° E 18:41:14 10° S
Cosmos 2369 Rocket 3.7 18:32:23 10° SE 18:35:40 16° E 18:36:50 15° E
CORIOLIS 4.2 18:30:24 10° SSE 18:35:49 90° E 18:41:14 10° NNW
SL-24 DEB 4.2 18:32:03 10° N 18:36:47 86° E 18:41:27 10° S
Cosmos 1624 Rocket 4.2 18:32:13 10° S 18:37:13 51° ESE 18:42:16 10° NNE
Tiangong 1 2.4 18:37:06 10° WNW 18:39:44 26° N 18:41:00 19° NE
Okean 1-7 Rocket 3.5 18:35:35 10° S 18:40:05 78° E 18:44:34 10° N
CZ-4 R/B 4.4 18:37:14 10° SSE 18:41:22 87° ENE 18:45:33 10° NNW
CZ-4 R/B 2.8 18:38:26 10° S 18:42:24 43° W 18:46:21 10° NNW
FALCON 9 R/B 4.3 18:08:49 10° WSW 18:42:29 79° S 18:49:06 17° E
Cosmos 1371 Rocket 4.0 18:37:52 10° S 18:43:12 74° ESE 18:48:34 10° NNE
Meteor 1-13 Rocket 4.3 18:38:25 10° S 18:44:06 85° W 18:49:58 10° N
Meteor 2-4 Rocket 3.7 18:39:04 10° S 18:44:15 53° E 18:49:27 10° NNE
COSMOS 2487 4.1 18:44:28 10° NW 18:47:49 38° WSW 18:51:08 10° S
SPOT 3 Rocket 4.4 18:46:15 10° S 18:51:17 54° W 18:56:22 10° NNW
MSX 3.9 18:48:18 10° SSE 18:54:03 83° WSW 18:59:50 10° NNW
Cosmos 1340 3.7 18:50:51 10° SSE 18:53:52 26° E 18:53:52 26° E
Cosmos 1934 Rocket 4.1 18:52:09 10° N 18:58:15 55° E 19:04:25 10° SSE
Cosmos 1606 Rocket 3.7 18:57:28 10° N 19:01:50 49° E 19:06:09 10° SSE
NOSS 7 (H) 4.3 18:58:38 10° SSW 19:02:02 86° WNW 19:03:18 35° NNE
METEOR-M 4.5 19:02:36 10° SE 19:07:31 39° ENE 19:12:28 10° N
Cosmos 1535 Rocket 4.4 19:02:22 10° N 19:08:41 85° E 19:14:51 10° S
COSMO-SKYMED 1 2.8 19:05:59 10° N 19:10:19 71° WNW 19:14:37 10° SSW
Abrixas 3.4 19:09:03 10° WNW 19:11:53 45° SW 19:12:54 30° SSE
Cosmos 1452 Rocket 3.9 19:08:27 10° S 19:13:19 40° ESE 19:14:16 37° ENE
Cosmos 1025 Rocket 3.4 19:10:07 10° SSW 19:14:28 66° W 19:18:51 10° N
Cosmos 1666 2.6 19:11:02 10° N 19:14:55 86° E 19:18:48 10° S
Cosmos 1190 Rocket 3.9 19:11:09 10° N 19:16:20 61° ENE 19:21:28 10° SSE
GEOS 3 Rocket 4.4 19:17:20 30° NE 19:17:20 30° NE 19:21:19 10° NNW
Cosmos 1821 Rocket 4.4 19:27:02 10° NNW 19:33:01 61° W 19:39:01 10° S
Cosmos 1833 Rocket 4.0 19:29:08 10° NW 19:34:23 41° WSW 19:39:35 10° S
Cosmos 1153 Rocket 4.5 19:30:42 10° N 19:36:41 51° E 19:42:37 10° SSE
Cosmos 2058 Rocket 4.0 19:33:23 10° N 19:39:36 37° SSE 19:42:16 10° S
Meteor 1-28 Rocket 4.3 19:41:29 33° NNW 19:42:38 43° WNW 19:46:13 10° SSW
Cosmos 2082 Rocket 4.2 19:39:03 10° NW 19:43:50 28° WSW 19:48:36 10° SSW
Cosmos 1605 Rocket 3.9 19:37:36 10° N 19:43:55 88° E 19:50:05 10° S
Cosmos 407 Rocket 4.1 20:01:23 10° NNW 20:06:22 53° WSW 20:11:23 10° S
NOSS 3-4 (A) 4.4 20:02:36 10° NW 20:09:31 55° WSW 20:16:49 10° SSE
NOSS 3-4 (C) 4.4 20:02:41 10° NW 20:09:37 56° WSW 20:16:56 10° SSE
Cosmos 2369 Rocket 2.6 20:13:29 10° SSW 20:18:41 60° W 20:18:41 60° W
Cosmos 1943 Rocket 4.4 20:41:39 10° SSW 20:42:42 16° SSW 20:42:42 16° SSW
